sat.trackr.live / text

‹ back to catalog

STARLINK-30572

NORAD 58114 · 2023-161T

PAYLOAD ACTIVE UNKNOWN

§ Identity

Operator
Country
US
Launch date
2023-10-21
Launch site
AFWTR
Launch vehicle
Mass (kg)
RCS (m²)

Purposes: comms

External: N2YO · Heavens-Above · Gunter

§ Orbital elements

Epoch: 2026-05-25T01:29:50.163360Z

Period
94.11 min
Inclination
53.1594°
Eccentricity
0.0001378
Mean motion
15.30199400 rev/d
Perigee alt
474.3 km
Apogee alt
476.2 km
Semi-major
6,853.4 km
B*
4.8016e-6
RAAN
170.8536°
Arg perigee
72.1967°
Mean anomaly
287.9184°
Rev number
14,611

§ Raw data

STARLINK-305721 58114U 23161T   26145.06238615 -.00000217  00000+0  48016-5 0  99952 58114  53.1594 170.8536 0001378  72.1967 287.9184 15.30199400146113

JSON: /api/v1/satellites/58114 · /tle

For live sub-satellite position, see the globe view (requires WebGL).

§ Visibility from observer

Set your observer location to see the next 7 days of passes ≥ 10°. The values pass through the URL so the page stays shareable.

No JS? Fill the form by hand. The geolocation button needs JavaScript.